This is the latest recevied weather packets stored in our database for station/object KJ4EWA. If no packets are shown the sender has not sent any weather packets the latest 10 day(s).
| Time | Temp. | Humidity | Pressure | Rain* | Wind** | Luminosity | Snow |
|---|---|---|---|---|---|---|---|
| 1777062073 | 28.33° C | 63% | 1014.6 hPa | 0 mm | - | 532 W/m² | - |
| 1777061769 | 27.78° C | 63% | 1014.6 hPa | 0 mm | - | 588 W/m² | - |
| 1777061466 | 27.78° C | 61% | 1014.7 hPa | 0 mm | - | 580 W/m² | - |
| 1777061162 | 28.33° C | 62% | 1014.6 hPa | 0 mm | - | 626 W/m² | - |
| 1777060856 | 27.78° C | 62% | 1014.9 hPa | 0 mm | - | 598 W/m² | - |
| 1777060552 | 27.22° C | 64% | 1015.2 hPa | 0 mm | - | 568 W/m² | - |
| 1777060249 | 27.78° C | 63% | 1014.8 hPa | 0 mm | - | 601 W/m² | - |
| 1777059944 | 27.78° C | 63% | 1015.2 hPa | 0 mm | - | 653 W/m² | - |
| 1777059640 | 28.33° C | 62% | 1015 hPa | 0 mm | - | 621 W/m² | - |
| 1777059338 | 27.78° C | 62% | 1015.5 hPa | 0 mm | - | 692 W/m² | - |
| 1777059033 | 27.22° C | 64% | 1015.4 hPa | 0 mm | - | 576 W/m² | - |
| 1777058733 | 27.22° C | 62% | 1015.5 hPa | 0 mm | - | 515 W/m² | - |
| 1777058429 | 28.89° C | 59% | 1015.5 hPa | 0 mm | - | 493 W/m² | - |
| 1777058127 | 28.89° C | 60% | 1015.6 hPa | 0 mm | - | 692 W/m² | - |
| 1777057827 | 28.89° C | 61% | 1015.8 hPa | 0 mm | - | 615 W/m² | - |
| 1777057522 | 28.33° C | 66% | 1015.8 hPa | 0 mm | - | 761 W/m² | - |
| 1777057218 | 27.78° C | 64% | 1015.8 hPa | 0 mm | - | 746 W/m² | - |
| 1777056914 | 27.78° C | 66% | 1015.8 hPa | 0 mm | - | 393 W/m² | - |
| 1777056613 | 26.67° C | 66% | 1016 hPa | 0 mm | - | 251 W/m² | - |
| 1777056308 | 27.22° C | 66% | 1015.8 hPa | 0 mm | - | 223 W/m² | - |
* Rain latest hour (hover to see other rain measurements)
** Current wind speed in m/s (hover to see current wind gust speed)